Time,TemperatureF,DewpointF,PressureIn,WindDirection,WindDirectionDegrees,WindSpeedMPH,WindSpeedGustMPH,Humidity,HourlyPrecipIn,Conditions,Clouds,dailyrainin,SoftwareType,DateUTC
2014-01-17 00:00:00,32.8,15.7,30.03,West,270,1.0,2.0,49,0.00,,,0.00,Wunderground v.1.15,2014-01-17 05:00:00,
2014-01-17 00:02:00,32.8,15.7,30.03,WNW,283,1.0,2.0,49,0.00,,,0.00,Wunderground v.1.15,2014-01-17 05:02:00,
2014-01-17 00:04:00,32.8,15.7,30.03,WNW,283,1.0,2.0,49,0.00,,,0.00,Wunderground v.1.15,2014-01-17 05:04:00,
2014-01-17 00:06:00,32.8,15.7,30.03,West,259,0.0,2.0,49,0.00,,,0.00,Wunderground v.1.15,2014-01-17 05:06:00,
2014-01-17 00:10:00,32.5,16.4,30.03,WNW,282,0.0,2.0,51,0.00,,,0.00,Wunderground v.1.15,2014-01-17 05:10:00,
2014-01-17 00:16:00,32.4,16.7,30.03,WNW,295,1.0,1.0,52,0.00,,,0.00,Wunderground v.1.15,2014-01-17 05:16:00,
2014-01-17 00:18:00,32.4,16.7,30.03,WNW,286,1.0,2.0,52,0.00,,,0.00,Wunderground v.1.15,2014-01-17 05:18:00,
2014-01-17 00:22:00,32.4,16.3,30.03,WNW,283,1.0,2.0,51,0.00,,,0.00,Wunderground v.1.15,2014-01-17 05:22:00,
2014-01-17 00:28:00,32.4,16.7,30.04,WNW,290,1.0,2.0,52,0.00,,,0.00,Wunderground v.1.15,2014-01-17 05:28:00,
2014-01-17 00:34:00,32.6,16.0,30.03,WNW,288,0.0,2.0,50,0.00,,,0.00,Wunderground v.1.15,2014-01-17 05:34:00,
2014-01-17 00:40:00,33.3,16.6,30.03,WNW,284,0.0,2.0,50,0.00,,,0.00,Wunderground v.1.15,2014-01-17 05:40:00,
2014-01-17 00:46:00,34.0,16.8,30.03,South,183,0.0,2.0,49,0.00,,,0.00,Wunderground v.1.15,2014-01-17 05:46:00,
2014-01-17 00:52:00,34.7,17.0,30.03,SSW,203,1.0,2.0,48,0.00,,,0.00,Wunderground v.1.15,2014-01-17 05:52:00,
2014-01-17 00:58:00,34.9,17.7,30.03,ESE,103,1.0,2.0,49,0.00,,,0.00,Wunderground v.1.15,2014-01-17 05:58:00,
2014-01-17 01:04:00,34.8,17.1,30.03,ESE,120,1.0,2.0,48,0.00,,,0.00,Wunderground v.1.15,2014-01-17 06:04:00,
2014-01-17 01:10:00,34.3,17.1,30.03,West,277,0.0,2.0,49,0.00,,,0.00,Wunderground v.1.15,2014-01-17 06:10:00,
2014-01-17 01:16:00,33.5,17.7,30.03,WNW,288,0.0,2.0,52,0.00,,,0.00,Wunderground v.1.15,2014-01-17 06:16:00,
2014-01-17 01:22:00,33.2,17.9,30.03,SW,219,0.0,2.0,53,0.00,,,0.00,Wunderground v.1.15,2014-01-17 06:22:00,
2014-01-17 01:28:00,33.4,18.1,30.03,WNW,284,0.0,2.0,53,0.00,,,0.00,Wunderground v.1.15,2014-01-17 06:28:00,
2014-01-17 01:34:00,32.0,17.2,30.03,SSE,155,0.0,2.0,54,0.00,,,0.00,Wunderground v.1.15,2014-01-17 06:34:00,
2014-01-17 01:40:00,32.1,18.2,30.03,WSW,257,0.0,2.0,56,0.00,,,0.00,Wunderground v.1.15,2014-01-17 06:40:00,
2014-01-17 01:46:00,30.6,17.2,30.03,West,280,0.0,2.0,57,0.00,,,0.00,Wunderground v.1.15,2014-01-17 06:46:00,
2014-01-17 01:52:00,29.9,17.3,30.03,West,279,0.0,2.0,59,0.00,,,0.00,Wunderground v.1.15,2014-01-17 06:52:00,
2014-01-17 01:57:00,29.8,17.6,30.03,SW,225,0.0,2.0,60,0.00,,,0.00,Wunderground v.1.15,2014-01-17 06:57:00,
2014-01-17 02:04:00,30.2,18.0,30.03,SSW,203,0.0,2.0,60,0.00,,,0.00,Wunderground v.1.15,2014-01-17 07:04:00,
2014-01-17 02:10:00,29.9,18.8,30.03,SSE,159,0.0,2.0,63,0.00,,,0.00,Wunderground v.1.15,2014-01-17 07:10:00,
2014-01-17 02:15:00,28.9,18.2,30.03,West,281,1.0,1.0,64,0.00,,,0.00,Wunderground v.1.15,2014-01-17 07:15:00,
2014-01-17 02:22:00,28.9,18.2,30.02,WNW,286,1.0,2.0,64,0.00,,,0.00,Wunderground v.1.15,2014-01-17 07:22:00,
2014-01-17 02:28:00,29.6,17.8,30.02,SW,219,0.0,2.0,61,0.00,,,0.00,Wunderground v.1.15,2014-01-17 07:28:00,
2014-01-17 02:33:00,29.8,18.0,30.02,SW,228,0.0,2.0,61,0.00,,,0.00,Wunderground v.1.15,2014-01-17 07:33:00,
2014-01-17 02:39:00,29.7,18.3,30.02,SSW,208,0.0,2.0,62,0.00,,,0.00,Wunderground v.1.15,2014-01-17 07:39:00,
2014-01-17 02:46:00,29.7,17.9,30.02,SW,228,0.0,2.0,61,0.00,,,0.00,Wunderground v.1.15,2014-01-17 07:46:00,
2014-01-17 02:51:00,29.9,17.3,30.02,SW,217,0.0,2.0,59,0.00,,,0.00,Wunderground v.1.15,2014-01-17 07:51:00,
2014-01-17 02:57:00,29.8,17.2,30.02,WSW,243,0.0,2.0,59,0.00,,,0.00,Wunderground v.1.15,2014-01-17 07:57:00,
2014-01-17 03:03:00,29.6,17.0,30.02,WSW,243,0.0,2.0,59,0.00,,,0.00,Wunderground v.1.15,2014-01-17 08:03:00,
2014-01-17 03:09:00,29.6,17.4,30.02,SSW,205,0.0,2.0,60,0.00,,,0.00,Wunderground v.1.15,2014-01-17 08:09:00,
2014-01-17 03:15:00,29.7,17.5,30.02,SW,217,0.0,2.0,60,0.00,,,0.00,Wunderground v.1.15,2014-01-17 08:15:00,
2014-01-17 03:21:00,29.2,18.2,30.02,SW,215,1.0,2.0,63,0.00,,,0.00,Wunderground v.1.15,2014-01-17 08:21:00,
2014-01-17 03:27:00,28.7,18.8,30.02,SSW,210,2.0,4.0,66,0.00,,,0.00,Wunderground v.1.15,2014-01-17 08:27:00,
2014-01-17 03:33:00,27.8,18.9,30.01,SSW,200,3.0,4.0,69,0.00,,,0.00,Wunderground v.1.15,2014-01-17 08:33:00,
2014-01-17 03:39:00,27.8,18.9,30.02,SW,236,2.0,3.0,69,0.00,,,0.00,Wunderground v.1.15,2014-01-17 08:39:00,
2014-01-17 03:45:00,27.4,18.9,30.02,West,278,1.0,1.0,70,0.00,,,0.00,Wunderground v.1.15,2014-01-17 08:45:00,
2014-01-17 03:50:00,27.7,18.5,30.02,NW,309,0.0,2.0,68,0.00,,,0.00,Wunderground v.1.15,2014-01-17 08:50:00,
2014-01-17 03:56:00,28.3,18.4,30.02,NE,34,0.0,2.0,66,0.00,,,0.00,Wunderground v.1.15,2014-01-17 08:56:00,
2014-01-17 04:02:00,28.8,18.1,30.02,NW,325,0.0,2.0,64,0.00,,,0.00,Wunderground v.1.15,2014-01-17 09:02:00,
2014-01-17 04:08:00,29.1,18.1,30.02,NW,326,0.0,2.0,63,0.00,,,0.00,Wunderground v.1.15,2014-01-17 09:08:00,
2014-01-17 04:14:00,29.0,18.0,30.02,SW,224,0.0,2.0,63,0.00,,,0.00,Wunderground v.1.15,2014-01-17 09:14:00,
2014-01-17 04:20:00,29.1,18.1,30.02,WNW,294,0.0,2.0,63,0.00,,,0.00,Wunderground v.1.15,2014-01-17 09:20:00,
2014-01-17 04:26:00,28.9,18.2,30.02,WNW,294,0.0,2.0,64,0.00,,,0.00,Wunderground v.1.15,2014-01-17 09:26:00,
2014-01-17 04:32:00,28.7,18.1,30.02,WNW,294,0.0,2.0,64,0.00,,,0.00,Wunderground v.1.15,2014-01-17 09:32:00,
2014-01-17 04:38:00,28.1,18.2,30.02,WNW,294,0.0,2.0,66,0.00,,,0.00,Wunderground v.1.15,2014-01-17 09:38:00,
2014-01-17 04:44:00,27.7,18.5,30.02,WNW,294,0.0,2.0,68,0.00,,,0.00,Wunderground v.1.15,2014-01-17 09:44:00,
2014-01-17 04:50:00,27.1,18.3,30.02,WNW,294,0.0,2.0,69,0.00,,,0.00,Wunderground v.1.15,2014-01-17 09:50:00,
2014-01-17 04:56:00,26.9,18.4,30.02,WNW,294,0.0,2.0,70,0.00,,,0.00,Wunderground v.1.15,2014-01-17 09:56:00,
2014-01-17 05:02:00,27.1,18.3,30.02,WNW,302,0.0,2.0,69,0.00,,,0.00,Wunderground v.1.15,2014-01-17 10:02:00,
2014-01-17 05:08:00,27.4,18.6,30.02,WNW,302,0.0,2.0,69,0.00,,,0.00,Wunderground v.1.15,2014-01-17 10:08:00,
2014-01-17 05:14:00,27.2,18.7,30.02,SW,216,0.0,2.0,70,0.00,,,0.00,Wunderground v.1.15,2014-01-17 10:14:00,
2014-01-17 05:20:00,26.7,18.6,30.02,SSE,151,0.0,2.0,71,0.00,,,0.00,Wunderground v.1.15,2014-01-17 10:20:00,
2014-01-17 05:26:00,26.2,18.7,30.02,SSE,152,0.0,2.0,73,0.00,,,0.00,Wunderground v.1.15,2014-01-17 10:26:00,
2014-01-17 05:32:00,26.0,18.8,30.03,SSE,152,0.0,2.0,74,0.00,,,0.00,Wunderground v.1.15,2014-01-17 10:32:00,
2014-01-17 05:38:00,25.8,19.0,30.03,SSE,150,0.0,2.0,75,0.00,,,0.00,Wunderground v.1.15,2014-01-17 10:38:00,
2014-01-17 05:44:00,25.4,19.2,30.03,ESE,113,0.0,2.0,77,0.00,,,0.00,Wunderground v.1.15,2014-01-17 10:44:00,
2014-01-17 05:49:00,25.2,19.3,30.03,ESE,117,0.0,2.0,78,0.00,,,0.00,Wunderground v.1.15,2014-01-17 10:49:00,
2014-01-17 05:56:00,24.9,19.3,30.03,ESE,118,0.0,2.0,79,0.00,,,0.00,Wunderground v.1.15,2014-01-17 10:56:00,
2014-01-17 06:02:00,24.5,19.5,30.02,ESE,118,0.0,2.0,81,0.00,,,0.00,Wunderground v.1.15,2014-01-17 11:02:00,
2014-01-17 06:07:00,24.4,19.1,30.02,SE,129,0.0,2.0,80,0.00,,,0.00,Wunderground v.1.15,2014-01-17 11:07:00,
2014-01-17 06:13:00,24.3,19.3,30.02,ESE,119,0.0,2.0,81,0.00,,,0.00,Wunderground v.1.15,2014-01-17 11:13:00,
2014-01-17 06:20:00,24.0,19.0,30.02,WNW,287,0.0,2.0,81,0.00,,,0.00,Wunderground v.1.15,2014-01-17 11:20:00,
2014-01-17 06:25:00,23.9,19.5,30.02,WNW,288,0.0,2.0,83,0.00,,,0.00,Wunderground v.1.15,2014-01-17 11:25:00,
2014-01-17 06:31:00,24.0,19.3,30.02,WNW,288,0.0,2.0,82,0.00,,,0.00,Wunderground v.1.15,2014-01-17 11:31:00,
2014-01-17 06:37:00,24.0,19.0,30.02,WNW,287,0.0,2.0,81,0.00,,,0.00,Wunderground v.1.15,2014-01-17 11:37:00,
2014-01-17 06:43:00,23.9,18.9,30.02,WNW,287,0.0,2.0,81,0.00,,,0.00,Wunderground v.1.15,2014-01-17 11:43:00,
2014-01-17 06:49:00,24.0,19.0,30.03,West,271,0.0,2.0,81,0.00,,,0.00,Wunderground v.1.15,2014-01-17 11:49:00,
2014-01-17 06:55:00,24.1,19.1,30.03,ESE,117,0.0,2.0,81,0.00,,,0.00,Wunderground v.1.15,2014-01-17 11:55:00,
2014-01-17 07:02:00,24.2,19.2,30.03,SW,225,1.0,2.0,81,0.00,,,0.00,Wunderground v.1.15,2014-01-17 12:02:00,
2014-01-17 07:07:00,24.0,19.3,30.03,WSW,243,0.0,2.0,82,0.00,,,0.00,Wunderground v.1.15,2014-01-17 12:07:00,
2014-01-17 07:13:00,23.4,19.3,30.04,SW,219,0.0,2.0,84,0.00,,,0.00,Wunderground v.1.15,2014-01-17 12:13:00,
2014-01-17 07:19:00,23.8,19.1,30.04,SW,218,1.0,2.0,82,0.00,,,0.00,Wunderground v.1.15,2014-01-17 12:19:00,
2014-01-17 07:25:00,24.1,19.1,30.03,SSW,207,0.0,2.0,81,0.00,,,0.00,Wunderground v.1.15,2014-01-17 12:25:00,
2014-01-17 07:31:00,24.2,19.2,30.03,SW,221,0.0,2.0,81,0.00,,,0.00,Wunderground v.1.15,2014-01-17 12:31:00,
2014-01-17 07:37:00,24.5,19.5,30.03,SSW,203,0.0,2.0,81,0.00,,,0.00,Wunderground v.1.15,2014-01-17 12:37:00,
2014-01-17 07:43:00,24.5,19.5,30.04,SE,144,0.0,2.0,81,0.00,,,0.00,Wunderground v.1.15,2014-01-17 12:43:00,
2014-01-17 07:50:00,24.2,19.5,30.04,ESE,118,0.0,2.0,82,0.00,,,0.00,Wunderground v.1.15,2014-01-17 12:50:00,
2014-01-17 07:56:00,24.5,19.5,30.03,West,259,1.0,1.0,81,0.00,,,0.00,Wunderground v.1.15,2014-01-17 12:56:00,
2014-01-17 08:02:00,24.5,19.8,30.04,West,271,1.0,3.0,82,0.00,,,0.00,Wunderground v.1.15,2014-01-17 13:02:00,
2014-01-17 08:08:00,24.9,20.5,30.04,NW,314,1.0,2.0,83,0.00,,,0.00,Wunderground v.1.15,2014-01-17 13:08:00,
2014-01-17 08:14:00,26.5,21.2,30.04,NW,314,0.0,2.0,80,0.00,,,0.00,Wunderground v.1.15,2014-01-17 13:14:00,
2014-01-17 08:20:00,28.2,21.9,30.04,NW,314,0.0,2.0,77,0.00,,,0.00,Wunderground v.1.15,2014-01-17 13:20:00,
2014-01-17 08:26:00,29.4,21.8,30.04,NW,314,0.0,2.0,73,0.00,,,0.00,Wunderground v.1.15,2014-01-17 13:26:00,
2014-01-17 08:32:00,30.3,22.7,30.04,NW,314,0.0,2.0,73,0.00,,,0.00,Wunderground v.1.15,2014-01-17 13:32:00,
2014-01-17 08:38:00,31.5,23.2,30.05,NW,314,0.0,2.0,71,0.00,,,0.00,Wunderground v.1.15,2014-01-17 13:38:00,
2014-01-17 08:44:00,31.3,22.3,30.05,WNW,287,0.0,2.0,69,0.00,,,0.00,Wunderground v.1.15,2014-01-17 13:44:00,
2014-01-17 08:50:00,31.4,22.7,30.05,WNW,287,0.0,2.0,70,0.00,,,0.00,Wunderground v.1.15,2014-01-17 13:50:00,
2014-01-17 08:56:00,32.9,23.5,30.05,WNW,287,0.0,2.0,68,0.00,,,0.00,Wunderground v.1.15,2014-01-17 13:56:00,
2014-01-17 09:02:00,34.0,22.7,30.05,ESE,109,0.0,2.0,63,0.00,,,0.00,Wunderground v.1.15,2014-01-17 14:02:00,
2014-01-17 09:08:00,33.5,22.6,30.06,ESE,109,0.0,2.0,64,0.00,,,0.00,Wunderground v.1.15,2014-01-17 14:08:00,
2014-01-17 09:14:00,34.4,23.1,30.06,ESE,108,0.0,2.0,63,0.00,,,0.00,Wunderground v.1.15,2014-01-17 14:14:00,
2014-01-17 09:20:00,33.3,22.1,30.06,NW,320,0.0,2.0,63,0.00,,,0.00,Wunderground v.1.15,2014-01-17 14:20:00,
2014-01-17 09:26:00,32.6,22.1,30.06,WNW,292,1.0,2.0,65,0.00,,,0.00,Wunderground v.1.15,2014-01-17 14:26:00,
2014-01-17 09:32:00,33.3,22.8,30.06,WNW,292,0.0,2.0,65,0.00,,,0.00,Wunderground v.1.15,2014-01-17 14:32:00,
2014-01-17 09:38:00,34.9,23.6,30.06,East,91,0.0,2.0,63,0.00,,,0.00,Wunderground v.1.15,2014-01-17 14:38:00,
2014-01-17 09:44:00,36.4,25.0,30.06,East,92,1.0,2.0,63,0.00,,,0.00,Wunderground v.1.15,2014-01-17 14:44:00,
2014-01-17 09:50:00,37.5,24.5,30.06,East,85,0.0,2.0,59,0.00,,,0.00,Wunderground v.1.15,2014-01-17 14:50:00,
2014-01-17 09:56:00,38.2,24.3,30.06,WSW,255,0.0,2.0,57,0.00,,,0.00,Wunderground v.1.15,2014-01-17 14:56:00,
2014-01-17 10:01:00,38.5,25.0,30.06,SW,224,0.0,2.0,58,0.00,,,0.00,Wunderground v.1.15,2014-01-17 15:01:00,
2014-01-17 10:08:00,39.0,21.9,30.06,SW,217,1.0,3.0,50,0.00,,,0.00,Wunderground v.1.15,2014-01-17 15:08:00,
2014-01-17 10:14:00,39.3,22.7,30.05,SW,216,3.0,3.0,51,0.00,,,0.00,Wunderground v.1.15,2014-01-17 15:14:00,
2014-01-17 10:19:00,39.9,22.7,30.05,West,262,3.0,3.0,50,0.00,,,0.00,Wunderground v.1.15,2014-01-17 15:19:00,
2014-01-17 10:26:00,40.6,22.9,30.04,SW,221,1.0,2.0,49,0.00,,,0.00,Wunderground v.1.15,2014-01-17 15:26:00,
2014-01-17 10:32:00,40.9,22.7,30.04,SW,219,1.0,2.0,48,0.00,,,0.00,Wunderground v.1.15,2014-01-17 15:32:00,
2014-01-17 10:37:00,41.5,23.2,30.04,SSW,203,1.0,2.0,48,0.00,,,0.00,Wunderground v.1.15,2014-01-17 15:37:00,
2014-01-17 10:43:00,42.2,23.9,30.04,West,270,1.0,2.0,48,0.00,,,0.00,Wunderground v.1.15,2014-01-17 15:43:00,
2014-01-17 10:49:00,42.9,23.0,30.03,SW,214,2.0,5.0,45,0.00,,,0.00,Wunderground v.1.15,2014-01-17 15:49:00,
2014-01-17 10:55:00,42.9,22.5,30.03,SSW,207,4.0,4.0,44,0.00,,,0.00,Wunderground v.1.15,2014-01-17 15:55:00,
2014-01-17 11:01:00,43.2,22.7,30.03,West,277,4.0,5.0,44,0.00,,,0.00,Wunderground v.1.15,2014-01-17 16:01:00,
2014-01-17 11:07:00,43.7,23.2,30.03,SW,227,3.0,3.0,44,0.00,,,0.00,Wunderground v.1.15,2014-01-17 16:07:00,
2014-01-17 11:13:00,44.4,23.3,30.02,WSW,255,2.0,3.0,43,0.00,,,0.00,Wunderground v.1.15,2014-01-17 16:13:00,
2014-01-17 11:19:00,44.9,23.7,30.02,SSE,168,2.0,3.0,43,0.00,,,0.00,Wunderground v.1.15,2014-01-17 16:19:00,
2014-01-17 11:25:00,45.9,25.2,30.01,SW,229,1.0,2.0,44,0.00,,,0.00,Wunderground v.1.15,2014-01-17 16:25:00,
2014-01-17 11:31:00,46.7,23.6,30.01,SSW,207,1.0,2.0,40,0.00,,,0.00,Wunderground v.1.15,2014-01-17 16:31:00,
2014-01-17 11:37:00,46.5,24.0,30.00,SW,219,3.0,6.0,41,0.00,,,0.00,Wunderground v.1.15,2014-01-17 16:37:00,
2014-01-17 11:43:00,46.7,23.6,30.00,South,179,3.0,6.0,40,0.00,,,0.00,Wunderground v.1.15,2014-01-17 16:43:00,
2014-01-17 11:50:00,47.4,23.7,30.00,ESE,107,3.0,3.0,39,0.00,,,0.00,Wunderground v.1.15,2014-01-17 16:50:00,
2014-01-17 11:56:00,47.6,23.8,29.99,SSW,196,3.0,3.0,39,0.00,,,0.00,Wunderground v.1.15,2014-01-17 16:56:00,
2014-01-17 12:02:00,48.5,23.4,29.99,ESE,117,2.0,4.0,37,0.00,,,0.00,Wunderground v.1.15,2014-01-17 17:02:00,
2014-01-17 12:08:00,48.9,24.4,29.98,East,93,2.0,6.0,38,0.00,,,0.00,Wunderground v.1.15,2014-01-17 17:08:00,
2014-01-17 12:14:00,49.0,23.2,29.98,East,83,2.0,6.0,36,0.00,,,0.00,Wunderground v.1.15,2014-01-17 17:14:00,
2014-01-17 12:20:00,49.5,23.6,29.98,SW,231,2.0,7.0,36,0.00,,,0.00,Wunderground v.1.15,2014-01-17 17:20:00,
2014-01-17 12:26:00,49.8,25.2,29.97,ESE,110,2.0,2.0,38,0.00,,,0.00,Wunderground v.1.15,2014-01-17 17:26:00,
2014-01-17 12:32:00,49.9,24.6,29.97,East,99,2.0,4.0,37,0.00,,,0.00,Wunderground v.1.15,2014-01-17 17:32:00,
2014-01-17 12:38:00,50.3,24.3,29.96,ESE,119,2.0,5.0,36,0.00,,,0.00,Wunderground v.1.15,2014-01-17 17:38:00,
2014-01-17 12:44:00,50.4,24.4,29.95,ESE,102,2.0,7.0,36,0.00,,,0.00,Wunderground v.1.15,2014-01-17 17:44:00,
2014-01-17 12:50:00,50.3,24.3,29.95,SW,217,2.0,6.0,36,0.00,,,0.00,Wunderground v.1.15,2014-01-17 17:50:00,
2014-01-17 12:56:00,50.3,24.3,29.95,SSW,211,2.0,6.0,36,0.00,,,0.00,Wunderground v.1.15,2014-01-17 17:56:00,
2014-01-17 13:02:00,50.0,24.7,29.94,ESE,116,3.0,6.0,37,0.00,,,0.00,Wunderground v.1.15,2014-01-17 18:02:00,
2014-01-17 13:08:00,50.2,24.2,29.94,WSW,247,3.0,5.0,36,0.00,,,0.00,Wunderground v.1.15,2014-01-17 18:08:00,
2014-01-17 13:14:00,50.6,25.3,29.94,SW,220,3.0,6.0,37,0.00,,,0.00,Wunderground v.1.15,2014-01-17 18:14:00,
2014-01-17 13:20:00,50.3,24.3,29.93,SW,217,3.0,5.0,36,0.00,,,0.00,Wunderground v.1.15,2014-01-17 18:20:00,
2014-01-17 13:26:00,50.6,25.3,29.93,SW,221,3.0,5.0,37,0.00,,,0.00,Wunderground v.1.15,2014-01-17 18:26:00,
2014-01-17 13:32:00,50.6,25.3,29.93,SE,130,3.0,6.0,37,0.00,,,0.00,Wunderground v.1.15,2014-01-17 18:32:00,
2014-01-17 13:38:00,50.8,24.8,29.92,ESE,113,3.0,4.0,36,0.00,,,0.00,Wunderground v.1.15,2014-01-17 18:38:00,
2014-01-17 13:44:00,50.4,24.4,29.92,ESE,121,2.0,4.0,36,0.00,,,0.00,Wunderground v.1.15,2014-01-17 18:44:00,
2014-01-17 13:50:00,49.9,24.0,29.93,SE,140,3.0,3.0,36,0.00,,,0.00,Wunderground v.1.15,2014-01-17 18:50:00,
2014-01-17 13:55:00,49.9,24.6,29.93,South,171,3.0,6.0,37,0.00,,,0.00,Wunderground v.1.15,2014-01-17 18:55:00,
2014-01-17 14:01:00,49.8,24.5,29.93,ESE,119,3.0,6.0,37,0.00,,,0.00,Wunderground v.1.15,2014-01-17 19:01:00,
2014-01-17 14:08:00,49.6,25.0,29.93,ESE,123,3.0,3.0,38,0.00,,,0.00,Wunderground v.1.15,2014-01-17 19:08:00,
2014-01-17 14:13:00,49.8,24.5,29.93,North,7,3.0,3.0,37,0.00,,,0.00,Wunderground v.1.15,2014-01-17 19:13:00,
2014-01-17 14:19:00,49.8,24.5,29.92,South,172,2.0,5.0,37,0.00,,,0.00,Wunderground v.1.15,2014-01-17 19:19:00,
2014-01-17 14:26:00,49.7,24.5,29.93,SSW,212,3.0,4.0,37,0.00,,,0.00,Wunderground v.1.15,2014-01-17 19:26:00,
2014-01-17 14:31:00,50.1,24.8,29.92,SE,138,3.0,4.0,37,0.00,,,0.00,Wunderground v.1.15,2014-01-17 19:31:00,
2014-01-17 14:37:00,50.7,24.7,29.92,SSE,158,2.0,3.0,36,0.00,,,0.00,Wunderground v.1.15,2014-01-17 19:37:00,
2014-01-17 14:43:00,51.4,25.3,29.92,SW,222,2.0,4.0,36,0.00,,,0.00,Wunderground v.1.15,2014-01-17 19:43:00,
2014-01-17 14:49:00,51.4,24.6,29.92,WSW,247,2.0,3.0,35,0.00,,,0.00,Wunderground v.1.15,2014-01-17 19:49:00,
2014-01-17 14:55:00,51.0,24.3,29.92,South,179,2.0,5.0,35,0.00,,,0.00,Wunderground v.1.15,2014-01-17 19:55:00,
2014-01-17 15:01:00,51.1,24.4,29.92,East,91,2.0,5.0,35,0.00,,,0.00,Wunderground v.1.15,2014-01-17 20:01:00,
2014-01-17 15:07:00,51.3,24.5,29.92,SSW,200,2.0,5.0,35,0.00,,,0.00,Wunderground v.1.15,2014-01-17 20:07:00,
2014-01-17 15:13:00,51.3,25.2,29.92,North,4,2.0,5.0,36,0.00,,,0.00,Wunderground v.1.15,2014-01-17 20:13:00,
2014-01-17 15:19:00,50.9,24.2,29.92,East,95,2.0,4.0,35,0.00,,,0.00,Wunderground v.1.15,2014-01-17 20:19:00,
2014-01-17 15:25:00,50.0,24.1,29.92,South,182,2.0,2.0,36,0.00,,,0.00,Wunderground v.1.15,2014-01-17 20:25:00,
2014-01-17 15:31:00,49.5,24.9,29.92,SSW,194,2.0,2.0,38,0.00,,,0.00,Wunderground v.1.15,2014-01-17 20:31:00,
2014-01-17 15:37:00,49.2,25.3,29.92,ESE,109,2.0,2.0,39,0.00,,,0.00,Wunderground v.1.15,2014-01-17 20:37:00,
2014-01-17 15:43:00,48.7,24.8,29.93,East,94,3.0,5.0,39,0.00,,,0.00,Wunderground v.1.15,2014-01-17 20:43:00,
2014-01-17 15:48:00,48.4,25.2,29.93,SW,217,2.0,3.0,40,0.00,,,0.00,Wunderground v.1.15,2014-01-17 20:48:00,
2014-01-17 15:54:00,48.2,25.0,29.93,ESE,109,2.0,3.0,40,0.00,,,0.00,Wunderground v.1.15,2014-01-17 20:54:00,
2014-01-17 16:00:00,48.0,26.0,29.93,SSW,203,2.0,3.0,42,0.00,,,0.00,Wunderground v.1.15,2014-01-17 21:00:00,
2014-01-17 16:06:00,47.6,25.0,29.93,SSE,150,2.0,2.0,41,0.00,,,0.00,Wunderground v.1.15,2014-01-17 21:06:00,
2014-01-17 16:12:00,47.4,25.4,29.93,SE,131,3.0,3.0,42,0.00,,,0.00,Wunderground v.1.15,2014-01-17 21:12:00,
2014-01-17 16:18:00,47.1,25.7,29.94,ESE,103,2.0,3.0,43,0.00,,,0.00,Wunderground v.1.15,2014-01-17 21:18:00,
2014-01-17 16:24:00,46.8,25.5,29.94,South,186,2.0,3.0,43,0.00,,,0.00,Wunderground v.1.15,2014-01-17 21:24:00,
2014-01-17 16:30:00,46.4,26.2,29.94,South,173,2.0,3.0,45,0.00,,,0.00,Wunderground v.1.15,2014-01-17 21:30:00,
2014-01-17 16:36:00,46.1,25.4,29.94,SSE,167,3.0,4.0,44,0.00,,,0.00,Wunderground v.1.15,2014-01-17 21:36:00,
2014-01-17 16:42:00,45.8,25.6,29.94,SSW,204,3.0,4.0,45,0.00,,,0.00,Wunderground v.1.15,2014-01-17 21:42:00,
2014-01-17 16:48:00,45.5,25.4,29.94,SW,223,3.0,3.0,45,0.00,,,0.00,Wunderground v.1.15,2014-01-17 21:48:00,
2014-01-17 16:54:00,45.2,25.6,29.94,SE,139,3.0,7.0,46,0.00,,,0.00,Wunderground v.1.15,2014-01-17 21:54:00,
2014-01-17 17:00:00,44.9,25.3,29.94,SW,214,3.0,3.0,46,0.00,,,0.00,Wunderground v.1.15,2014-01-17 22:00:00,
2014-01-17 17:06:00,44.8,25.3,29.94,SW,219,3.0,3.0,46,0.00,,,0.00,Wunderground v.1.15,2014-01-17 22:06:00,
2014-01-17 17:12:00,44.6,25.1,29.94,SW,224,4.0,4.0,46,0.00,,,0.00,Wunderground v.1.15,2014-01-17 22:12:00,
2014-01-17 17:18:00,44.5,25.0,29.95,SSW,208,4.0,7.0,46,0.00,,,0.00,Wunderground v.1.15,2014-01-17 22:18:00,
2014-01-17 17:24:00,44.2,24.7,29.94,SSW,200,4.0,7.0,46,0.00,,,0.00,Wunderground v.1.15,2014-01-17 22:24:00,
2014-01-17 17:30:00,44.1,24.6,29.94,SSW,205,3.0,4.0,46,0.00,,,0.00,Wunderground v.1.15,2014-01-17 22:30:00,
2014-01-17 17:36:00,43.9,24.4,29.94,SW,221,3.0,3.0,46,0.00,,,0.00,Wunderground v.1.15,2014-01-17 22:36:00,
2014-01-17 17:42:00,43.7,24.8,29.94,SW,221,3.0,4.0,47,0.00,,,0.00,Wunderground v.1.15,2014-01-17 22:42:00,
2014-01-17 17:48:00,43.8,24.3,29.94,SW,228,3.0,3.0,46,0.00,,,0.00,Wunderground v.1.15,2014-01-17 22:48:00,
2014-01-17 17:54:00,43.6,24.7,29.94,SW,220,2.0,3.0,47,0.00,,,0.00,Wunderground v.1.15,2014-01-17 22:54:00,
2014-01-17 18:00:00,43.5,24.6,29.94,WSW,248,2.0,4.0,47,0.00,,,0.00,Wunderground v.1.15,2014-01-17 23:00:00,
2014-01-17 18:05:00,43.3,24.4,29.94,SW,217,2.0,2.0,47,0.00,,,0.00,Wunderground v.1.15,2014-01-17 23:05:00,
2014-01-17 18:11:00,43.1,24.7,29.95,West,276,2.0,3.0,48,0.00,,,0.00,Wunderground v.1.15,2014-01-17 23:11:00,
2014-01-17 18:18:00,42.6,24.8,29.95,SW,220,1.0,2.0,49,0.00,,,0.00,Wunderground v.1.15,2014-01-17 23:18:00,
2014-01-17 18:23:00,42.3,25.0,29.95,SW,216,1.0,2.0,50,0.00,,,0.00,Wunderground v.1.15,2014-01-17 23:23:00,
2014-01-17 18:29:00,41.9,24.6,29.95,SW,227,1.0,2.0,50,0.00,,,0.00,Wunderground v.1.15,2014-01-17 23:29:00,
2014-01-17 18:35:00,41.7,24.4,29.95,SW,219,2.0,3.0,50,0.00,,,0.00,Wunderground v.1.15,2014-01-17 23:35:00,
2014-01-17 18:42:00,41.7,24.4,29.95,SW,226,3.0,3.0,50,0.00,,,0.00,Wunderground v.1.15,2014-01-17 23:42:00,
2014-01-17 18:47:00,41.8,24.5,29.95,SSW,212,3.0,3.0,50,0.00,,,0.00,Wunderground v.1.15,2014-01-17 23:47:00,
2014-01-17 18:53:00,41.5,24.7,29.95,SSW,213,3.0,3.0,51,0.00,,,0.00,Wunderground v.1.15,2014-01-17 23:53:00,
2014-01-17 18:59:00,41.3,25.0,29.95,SW,216,3.0,3.0,52,0.00,,,0.00,Wunderground v.1.15,2014-01-17 23:59:00,
2014-01-17 19:05:00,40.9,25.1,29.95,SW,217,2.0,2.0,53,0.00,,,0.00,Wunderground v.1.15,2014-01-18 00:05:00,
2014-01-17 19:15:00,39.9,25.0,29.95,SSW,205,1.0,1.0,55,0.00,,,0.00,Wunderground v.1.15,2014-01-18 00:15:00,
2014-01-17 19:21:00,39.5,25.1,29.95,SSW,195,1.0,2.0,56,0.00,,,0.00,Wunderground v.1.15,2014-01-18 00:21:00,
2014-01-17 19:27:00,39.0,25.0,29.95,SSE,165,1.0,2.0,57,0.00,,,0.00,Wunderground v.1.15,2014-01-18 00:27:00,
2014-01-17 19:33:00,38.6,25.1,29.94,SSW,212,1.0,2.0,58,0.00,,,0.00,Wunderground v.1.15,2014-01-18 00:33:00,
2014-01-17 19:39:00,38.2,25.1,29.94,South,172,1.0,2.0,59,0.00,,,0.00,Wunderground v.1.15,2014-01-18 00:39:00,
2014-01-17 19:44:00,37.9,25.2,29.94,WSW,245,1.0,2.0,60,0.00,,,0.00,Wunderground v.1.15,2014-01-18 00:44:00,
2014-01-17 19:50:00,36.8,25.8,29.94,West,271,0.0,2.0,64,0.00,,,0.00,Wunderground v.1.15,2014-01-18 00:50:00,
2014-01-17 19:56:00,36.5,25.1,29.94,SW,229,0.0,2.0,63,0.00,,,0.00,Wunderground v.1.15,2014-01-18 00:56:00,
2014-01-17 20:02:00,36.4,25.4,29.94,SW,229,0.0,2.0,64,0.00,,,0.00,Wunderground v.1.15,2014-01-18 01:02:00,
2014-01-17 20:08:00,36.1,25.5,29.94,West,278,0.0,2.0,65,0.00,,,0.00,Wunderground v.1.15,2014-01-18 01:08:00,
2014-01-17 20:14:00,35.6,25.7,29.94,West,275,0.0,2.0,67,0.00,,,0.00,Wunderground v.1.15,2014-01-18 01:14:00,
2014-01-17 20:20:00,35.1,25.2,29.94,West,276,0.0,2.0,67,0.00,,,0.00,Wunderground v.1.15,2014-01-18 01:20:00,
2014-01-17 20:26:00,34.8,25.3,29.94,West,276,0.0,2.0,68,0.00,,,0.00,Wunderground v.1.15,2014-01-18 01:26:00,
2014-01-17 20:32:00,34.4,26.0,29.94,West,276,0.0,2.0,71,0.00,,,0.00,Wunderground v.1.15,2014-01-18 01:32:00,
2014-01-17 20:38:00,33.9,25.8,29.94,West,275,0.0,2.0,72,0.00,,,0.00,Wunderground v.1.15,2014-01-18 01:38:00,
2014-01-17 20:44:00,33.5,25.4,29.93,West,276,0.0,2.0,72,0.00,,,0.00,Wunderground v.1.15,2014-01-18 01:44:00,
2014-01-17 20:50:00,33.4,25.7,29.94,West,276,0.0,2.0,73,0.00,,,0.00,Wunderground v.1.15,2014-01-18 01:50:00,
2014-01-17 20:56:00,33.3,25.9,29.93,West,276,0.0,2.0,74,0.00,,,0.00,Wunderground v.1.15,2014-01-18 01:56:00,
2014-01-17 21:02:00,33.1,25.7,29.94,West,276,0.0,2.0,74,0.00,,,0.00,Wunderground v.1.15,2014-01-18 02:02:00,
2014-01-17 21:08:00,32.9,25.5,29.94,West,277,0.0,2.0,74,0.00,,,0.00,Wunderground v.1.15,2014-01-18 02:08:00,
2014-01-17 21:14:00,33.0,26.3,29.94,West,277,0.0,2.0,76,0.00,,,0.00,Wunderground v.1.15,2014-01-18 02:14:00,
2014-01-17 21:20:00,33.1,26.0,29.93,West,277,0.0,2.0,75,0.00,,,0.00,Wunderground v.1.15,2014-01-18 02:20:00,
2014-01-17 21:26:00,32.8,25.7,29.93,West,277,0.0,2.0,75,0.00,,,0.00,Wunderground v.1.15,2014-01-18 02:26:00,
2014-01-17 21:32:00,32.4,25.4,29.94,West,279,0.0,2.0,75,0.00,,,0.00,Wunderground v.1.15,2014-01-18 02:32:00,
2014-01-17 21:38:00,32.4,25.7,29.94,East,89,0.0,2.0,76,0.00,,,0.00,Wunderground v.1.15,2014-01-18 02:38:00,
2014-01-17 21:44:00,32.4,25.7,29.93,East,88,1.0,2.0,76,0.00,,,0.00,Wunderground v.1.15,2014-01-18 02:44:00,
2014-01-17 21:49:00,32.4,25.7,29.94,ENE,77,1.0,2.0,76,0.00,,,0.00,Wunderground v.1.15,2014-01-18 02:49:00,
2014-01-17 21:56:00,32.6,25.9,29.93,East,88,0.0,2.0,76,0.00,,,0.00,Wunderground v.1.15,2014-01-18 02:56:00,
2014-01-17 22:02:00,32.6,25.9,29.93,ENE,66,1.0,2.0,76,0.00,,,0.00,Wunderground v.1.15,2014-01-18 03:02:00,
2014-01-17 22:07:00,32.8,26.1,29.94,East,85,1.0,2.0,76,0.00,,,0.00,Wunderground v.1.15,2014-01-18 03:07:00,
2014-01-17 22:14:00,33.1,26.4,29.94,East,96,1.0,2.0,76,0.00,,,0.00,Wunderground v.1.15,2014-01-18 03:14:00,
2014-01-17 22:20:00,34.0,26.9,29.94,East,100,1.0,2.0,75,0.00,,,0.00,Wunderground v.1.15,2014-01-18 03:20:00,
2014-01-17 22:25:00,34.1,26.3,29.94,SW,226,1.0,4.0,73,0.00,,,0.00,Wunderground v.1.15,2014-01-18 03:25:00,
2014-01-17 22:31:00,32.9,26.2,29.94,SW,231,1.0,4.0,76,0.00,,,0.00,Wunderground v.1.15,2014-01-18 03:31:00,
2014-01-17 22:37:00,32.9,26.5,29.94,NW,317,1.0,2.0,77,0.00,,,0.00,Wunderground v.1.15,2014-01-18 03:37:00,
2014-01-17 22:43:00,33.5,26.4,29.94,NW,321,1.0,3.0,75,0.00,,,0.00,Wunderground v.1.15,2014-01-18 03:43:00,
2014-01-17 22:49:00,34.6,27.5,29.94,NNW,330,1.0,2.0,75,0.00,,,0.00,Wunderground v.1.15,2014-01-18 03:49:00,
2014-01-17 22:55:00,34.8,27.4,29.95,East,84,1.0,1.0,74,0.00,,,0.00,Wunderground v.1.15,2014-01-18 03:55:00,
2014-01-17 23:01:00,35.6,28.8,29.95,WNW,302,0.0,2.0,76,0.00,,,0.00,Wunderground v.1.15,2014-01-18 04:01:00,
2014-01-17 23:07:00,36.1,29.3,29.95,WSW,248,1.0,4.0,76,0.00,,,0.00,Wunderground v.1.15,2014-01-18 04:07:00,
2014-01-17 23:13:00,36.5,30.0,29.95,West,264,3.0,7.0,77,0.00,,,0.00,Wunderground v.1.15,2014-01-18 04:13:00,
2014-01-17 23:19:00,37.3,31.4,29.94,WNW,293,3.0,5.0,79,0.00,,,0.00,Wunderground v.1.15,2014-01-18 04:19:00,
2014-01-17 23:25:00,37.3,31.1,29.94,WNW,285,4.0,4.0,78,0.00,,,0.00,Wunderground v.1.15,2014-01-18 04:25:00,
2014-01-17 23:31:00,37.2,30.7,29.95,East,92,3.0,4.0,77,0.00,,,0.00,Wunderground v.1.15,2014-01-18 04:31:00,
2014-01-17 23:37:00,36.7,30.2,29.94,East,82,2.0,4.0,77,0.00,,,0.00,Wunderground v.1.15,2014-01-18 04:37:00,
2014-01-17 23:43:00,36.6,29.7,29.94,NE,35,2.0,4.0,76,0.00,,,0.00,Wunderground v.1.15,2014-01-18 04:43:00,
2014-01-17 23:48:00,36.8,29.6,29.94,East,93,3.0,3.0,75,0.00,,,0.00,Wunderground v.1.15,2014-01-18 04:48:00,
2014-01-17 23:54:00,36.4,30.2,29.94,ENE,68,4.0,8.0,78,0.00,,,0.00,Wunderground v.1.15,2014-01-18 04:54:00,